Location: *
(42.0175°N, 9.4056°E)
Time: 13:11:26
(UTC+00:00)

Cosmos 1697 Rocket - Pass Details

Date: 25 August 2019
Orbit: 831 x 845 km, 71.0° (Epoch: 23 September)

Event Time Altitude Azimuth Distance (km) Brightness Sun altitude
Rises 19:33:12 0° 340° (NNW) 3,413 6.7 -15.4°
Reaches altitude 10° 19:35:45 10° 346° (NNW) 2,474 5.8 -15.8°
Maximum altitude 19:41:14 47° 60° (ENE) 1,105 3.1 -16.7°
Enters shadow 19:43:52 28° 118° (ESE) 1,535 3.5 -17.1°
